SCP
0 0 1 1 1 0 0 0 0 0 0 0 0 0 0 0 0 0 0 0 0 0 0 0 0 0 0 0 0 0 0 0 0 0 0 0 0 0 0 0 0 0 0
0 0 1 1 1 0 0 0 0 0 0 0 0 0 0 0 0 0 0 0 0 0 0 0 0 0 0 0 0 0 0 0 0 0 0 0 0 0 0 0 0 0 0
0 0 1 1 1 0 0 0 0 0 0 0 0 0 0 0 0 0 0 0 0 0 0 0 0 0 0 0 0 0 0 0 0 0 0 0 0 0 0 0 0 0 0
0 0 1 1 1 0 0 0 0 0 0 0 0 0 0 0 0 0 0 0 0 0 0 0 0 0 0 0 0 0 0 0 0 0 0 0 0 0 0 0 0 0 0
1 1 1 1 1 0 0 0 0 0 0 0 0 0 0 0 0 0 0 0 0 0 0 0 0 0 0 0 0 0 0 0 0 0 0 0 0 0 0 0 0 0 0
1 1 1 1 1 1 0 0 0 0 0 0 0 0 0 0 0 0 0 0 0 0 0 0 0 0 0 0 0 0 0 0 0 0 0 0 0 0 0 0 0 0 0
0 0 1 1 1 1 0 0 0 0 0 0 0 0 0 0 0 0 0 0 0 0 0 0 0 0 0 0 0 0 0 0 0 0 0 0 0 0 0 0 0 0 0
0 0 1 1 1 1 0 0 0 0 0 0 0 0 0 0 0 0 0 0 0 0 0 0 0 0 0 0 0 0 0 0 0 0 0 0 0 0 0 0 0 0 0
0 0 0 1 1 1 1 0 0 0 0 0 0 0 0 0 0 0 0 0 0 0 0 0 0 0 0 0 0 0 0 0 0 0 0 0 0 0 0 0 0 0 0
0 0 0 0 1 1 1 0 0 0 0 0 0 0 0 0 0 0 0 0 0 0 0 0 0 0 0 0 0 0 0 0 0 0 0 0 0 0 0 0 0 0 0
0 0 0 0 0 0 0 0 0 0 0 0 0 0 0 0 0 0 0 0 0 0 0 0 0 0 0 0 0 0 0 0 0 0 0 0 0 0 0 0 0 0 0
1 1 1 1 1 0 0 0 0 0 0 0 0 0 0 0 0 0 0 0 0 0 0 0 0 0 0 0 0 0 0 0 0 0 0 0 0 0 0 0 0 0 0
1 1 1 1 1 1 1 0 0 0 0 0 0 0 0 0 0 0 0 0 0 0 0 0 0 0 0 0 0 0 0 0 0 0 0 0 0 0 0 0 0 0 0
1 1 1 1 1 1 1 1 0 0 0 0 0 0 0 0 0 0 0 0 0 0 0 0 0 0 0 0 0 0 0 0 0 0 0 0 0 0 0 0 0 0 0
1 1 1 1 1 1 1 1 1 0 0 0 0 0 0 0 0 0 0 0 0 0 0 0 0 0 0 0 0 0 0 0 0 0 0 0 0 0 0 0 0 0 0
1 1 1 1 1 1 1 1 1 0 0 0 0 0 0 0 0 0 0 0 0 0 0 0 0 0 0 0 0 0 0 0 0 0 0 0 0 0 0 0 0 0 0
0 0 1 1 1 1 1 1 1 0 0 0 0 0 0 0 0 0 0 0 0 0 0 0 0 0 0 0 0 0 0 0 0 0 0 0 0 0 0 0 0 0 0
0 0 0 1 1 1 1 1 0 0 0 0 0 0 0 0 0 0 0 0 0 0 0 0 0 0 0 0 0 0 0 0 0 0 0 0 0 0 0 0 0 0 0
0 0 0 1 1 1 1 0 0 0 0 0 0 0 0 0 0 0 0 0 0 0 0 0 0 0 0 0 0 0 0 0 0 0 0 0 0 0 0 0 0 0 0
0 0 0 0 0 1 0 0 0 0 0 0 0 0 0 0 0 0 0 0 0 0 0 0 0 0 0 0 0 0 0 0 0 0 0 0 0 0 0 0 0 0 0
0 0 0 0 0 0 0 0 0 0 0 0 0 0 0 0 0 0 0 0 0 0 0 0 0 0 0 0 0 0 0 0 0 0 0 0 0 0 0 0 0 0 0
0 0 0 0 0 0 0 0 0 0 0 0 0 0 0 0 0 0 0 0 0 0 0 0 0 0 0 0 0 0 0 0 0 0 0 0 0 0 0 0 0 0 0
0 0 0 0 0 0 0 0 0 0 0 0 0 0 0 0 0 0 0 0 0 0 0 0 0 0 0 0 0 0 0 0 0 0 0 0 0 0 0 0 0 0 0
0 0 0 0 0 0 0 0 0 0 0 0 0 0 0 0 0 0 0 0 0 0 0 0 0 0 0 0 0 0 0 0 0 0 0 0 0 0 0 0 0 0 0
0 0 0 0 0 0 0 0 0 0 0 0 0 0 0 0 0 0 0 0 0 0 0 0 0 0 0 0 0 0 0 0 0 0 0 0 0 0 0 0 0 0 0
0 0 0 0 0 0 0 0 0 0 0 0 0 0 0 0 0 0 0 0 0 0 0 0 0 0 0 0 0 0 0 0 0 0 0 0 0 0 0 0 0 0 0
Wind_Speed
5 6 15 16 15 14 13 12 10 9 9 8 8 8 8 8 8 7 6 5 4 4 4 3 2 2 4 5 7 7 6 6 6 6 6 6 7 7 5 3 3 2 3
7 8 15 16 16 15 13 11 10 8 8 8 7 7 7 7 6 5 5 4 3 4 5 6 5 4 5 6 7 6 5 5 5 5 6 6 7 8 6 4 3 2 3
9 10 13 16 16 15 13 12 10 8 8 7 7 7 7 6 5 4 4 3 3 4 5 6 7 7 7 8 7 5 4 4 4 5 6 3 5 8 7 5 4 5 5
11 9 10 15 16 15 14 12 10 9 8 8 7 7 7 6 5 4 4 3 4 4 4 5 6 6 6 6 5 4 3 3 4 4 3 2 3 7 7 6 6 7 7
9 8 10 16 16 15 14 12 11 9 9 8 8 7 7 7 6 5 4 4 3 3 3 4 4 4 4 4 3 3 3 4 3 3 2 2 3 7 8 8 8 8 8
8 7 9 16 16 15 14 12 11 10 9 9 8 8 7 6 5 5 4 3 3 2 2 2 2 2 3 3 3 4 5 5 3 1 2 3 3 8 10 9 9 9 10
8 6 8 15 16 15 14 13 11 10 10 9 9 8 7 6 5 4 4 3 2 1 0 1 2 2 3 4 5 6 6 5 3 3 3 4 5 10 11 11 11 11 11
9 7 7 14 14 14 14 13 11 10 10 10 9 8 7 5 4 4 4 3 2 2 2 2 3 4 5 5 6 7 7 6 5 4 4 5 9 12 12 12 12 13 13
7 6 6 7 9 12 12 12 11 10 10 9 9 7 5 3 3 3 3 3 3 3 4 4 5 6 6 7 8 9 8 8 5 3 5 4 9 12 13 13 13 14 15
5 6 6 6 6 6 7 10 10 9 8 8 7 5 3 2 1 1 1 3 5 5 5 6 6 7 7 8 8 8 8 6 3 4 3 5 11 12 13 13 13 14 15
7 6 6 6 6 6 6 7 8 8 7 6 5 5 3 1 1 2 3 4 6 6 6 7 7 7 7 6 8 8 6 2 3 3 3 7 10 11 13 13 12 12 12
11 10 8 8 7 6 6 4 4 4 4 3 3 3 2 1 1 2 4 5 5 5 5 6 7 7 6 3 5 6 3 4 3 3 3 10 10 11 11 12 12 12 12
10 10 10 10 8 7 5 4 3 2 3 3 3 3 2 2 1 1 2 3 3 4 3 4 5 4 3 3 3 4 4 3 3 3 5 10 10 10 10 11 12 13 14
7 10 10 11 9 9 6 4 4 3 3 3 3 4 3 2 1 1 1 2 2 2 2 3 3 4 4 5 5 5 5 4 3 3 4 11 11 12 12 14 15 16 16
8 9 10 11 11 10 8 5 5 5 4 4 3 4 4 3 3 2 2 2 3 3 3 3 3 4 5 5 5 5 5 5 5 4 4 11 15 16 16 16 17 16 16
10 10 10 12 12 11 9 7 5 5 4 3 3 4 5 4 4 4 4 3 4 3 4 4 4 4 4 3 4 4 4 4 4 4 4 7 15 17 17 17 17 17 16
8 8 10 11 12 12 10 8 6 5 5 4 4 5 6 5 5 5 5 4 4 4 4 4 4 4 4 5 5 4 3 4 4 4 4 4 6 14 17 18 18 17 17
6 7 8 9 11 12 9 8 6 5 5 4 5 5 7 7 7 6 5 5 4 4 4 4 4 4 5 5 4 4 3 3 3 4 4 4 4 5 10 17 19 18 17
7 6 7 8 11 10 9 7 7 6 6 5 6 6 8 8 8 7 6 4 4 5 5 4 5 4 4 6 5 4 3 3 2 3 3 4 4 4 4 11 18 17 17
5 6 6 7 9 11 9 9 8 8 7 6 6 7 9 8 8 7 6 6 5 6 5 4 4 5 3 4 5 5 3 2 1 2 2 2 2 4 5 7 7 10 16
5 6 7 9 11 11 10 9 8 7 7 6 6 9 10 9 8 7 7 6 6 6 5 5 3 5 5 5 4 5 4 2 2 1 1 1 2 5 7 7 6 6 6
6 7 8 10 10 10 8 6 6 7 7 6 6 8 9 9 7 7 8 6 5 5 6 6 5 3 4 5 3 3 6 7 5 3 3 2 4 5 7 10 8 6 6
7 8 9 10 10 10 11 11 11 8 6 5 6 6 7 8 8 8 8 7 6 5 5 5 5 4 3 3 3 3 3 4 5 5 4 3 4 4 5 6 7 7 9
7 7 9 10 11 12 13 14 16 11 8 6 5 6 8 7 7 8 8 7 6 5 5 4 4 3 3 2 2 2 1 2 3 6 5 3 4 6 6 8 9 9 8
8 8 9 11 11 11 10 13 13 11 9 9 8 10 8 6 7 7 7 6 6 5 5 5 4 3 2 1 1 1 2 2 1 3 7 6 6 4 5 8 8 7 7
8 9 10 12 11 9 10 11 14 17 16 14 10 9 6 5 5 7 7 6 5 4 4 4 3 3 2 1 1 0 1 1 2 3 6 10 10 5 7 8 6 6 6
Wind_Direction
201 187 167 152 148 146 144 141 136 133 132 133 132 130 127 119 112 105 98 89 76 66 58 60 80 118 127 129 118 108 94 76 59 45 31 18 5 351 339 330 336 334 302
163 170 165 155 152 150 149 145 141 140 140 137 134 136 132 123 112 105 95 87 77 59 49 47 56 67 98 111 108 97 87 69 48 38 42 27 1 343 324 299 297 295 293
150 163 162 156 155 154 152 148 147 148 150 146 141 142 135 129 118 106 95 85 73 51 41 38 42 51 69 82 86 79 67 43 27 28 39 24 348 338 320 277 266 283 282
154 157 156 158 158 158 155 153 153 155 156 154 150 146 139 136 129 114 98 79 71 61 50 44 41 48 53 61 62 51 29 7 12 24 40 2 337 328 316 276 250 256 267
153 153 159 161 162 161 160 160 161 162 162 161 156 151 148 144 137 123 100 83 77 71 60 53 47 47 42 37 26 356 333 336 356 20 348 328 314 312 308 287 268 265 272
152 152 163 164 166 164 165 167 168 169 170 168 164 160 161 158 153 136 124 114 111 101 79 58 38 21 7 352 332 319 319 329 356 323 297 293 288 298 297 288 279 271 267
156 157 167 168 170 169 170 171 173 175 176 174 174 174 176 173 169 157 156 155 156 157 97 5 346 336 324 317 310 309 314 322 313 278 276 274 276 291 290 284 279 275 270
162 161 169 174 173 173 175 176 178 179 181 181 184 185 187 185 180 177 186 192 203 231 279 323 326 320 315 311 312 315 320 317 310 290 278 272 282 294 291 283 277 274 272
161 163 171 176 174 175 178 180 181 182 185 187 191 193 194 188 194 198 212 224 249 278 304 316 316 315 313 314 316 319 320 317 312 287 286 282 294 298 294 287 279 272 269
168 174 174 174 170 172 177 180 181 182 185 189 192 181 166 154 160 272 284 272 279 293 306 313 317 318 323 326 328 330 331 326 319 304 292 297 306 306 302 298 293 284 277
190 189 181 178 173 168 170 181 179 180 185 187 186 172 147 101 39 350 328 308 299 302 311 320 332 344 354 354 351 350 351 348 328 314 304 318 324 322 321 325 325 317 306
199 197 192 189 182 171 178 168 166 168 170 163 151 147 129 118 27 350 342 344 338 342 349 0 14 18 21 7 1 8 6 355 353 335 335 345 343 339 342 347 351 352 350
200 197 196 195 188 180 176 162 162 158 157 161 162 157 141 120 61 20 10 2 16 30 32 28 32 29 27 20 13 13 11 10 4 351 351 1 0 356 359 8 16 17 16
195 199 196 194 192 189 180 171 167 165 165 172 174 165 149 134 116 76 53 36 42 46 48 42 42 36 34 29 23 21 20 13 3 356 0 17 28 30 32 33 29 24 22
208 205 197 192 194 190 183 176 174 176 176 176 167 164 155 143 132 111 87 70 60 58 55 49 46 43 34 24 19 20 18 7 4 11 9 38 46 41 40 34 26 19 15
215 209 196 194 193 188 186 180 174 171 164 156 157 158 149 138 131 119 97 76 61 57 57 56 53 44 30 14 10 13 17 5 9 26 33 40 48 42 37 31 22 14 10
220 207 195 194 187 185 184 177 165 159 153 152 148 140 134 129 124 113 98 79 62 59 63 56 49 42 28 12 359 2 18 12 22 37 44 48 45 40 33 28 19 11 6
218 204 196 189 182 180 173 160 149 145 141 135 127 123 119 114 110 102 94 82 70 63 61 60 36 35 20 3 344 342 8 5 31 47 48 54 56 46 28 25 16 6 0
210 194 183 177 171 166 152 137 125 121 115 113 109 108 106 103 102 99 92 85 76 65 50 53 45 36 18 354 331 333 360 356 25 49 52 57 55 53 34 18 10 359 353
191 176 165 155 151 141 131 120 111 102 97 95 98 101 101 99 100 99 90 80 73 67 51 45 52 39 24 346 330 330 337 346 9 55 46 47 41 37 29 15 2 346 344
171 161 154 146 147 145 142 136 127 117 109 97 92 98 97 97 94 95 94 79 71 71 59 44 44 34 17 358 0 340 337 351 349 53 27 2 17 20 16 1 343 327 323
174 162 151 150 151 149 142 127 116 116 105 96 93 90 94 98 97 95 93 87 78 77 61 46 44 44 19 21 28 6 347 339 339 345 346 356 12 12 359 339 318 308 307
178 169 156 149 143 135 129 119 114 105 103 101 98 89 87 93 93 95 91 88 78 76 72 60 51 61 31 11 38 58 20 313 309 314 321 343 357 351 328 311 304 305 302
178 159 145 141 139 139 139 141 142 140 134 125 121 111 97 92 93 89 87 85 80 76 73 62 61 60 66 26 2 29 218 236 293 310 302 306 321 316 301 308 304 294 290
155 148 141 136 137 141 142 145 135 124 118 121 117 109 100 88 83 84 83 82 79 77 75 68 63 59 69 77 17 339 331 313 253 276 293 304 302 280 288 291 290 286 285
141 139 140 138 136 137 138 139 136 133 134 132 127 119 108 96 81 79 81 79 78 76 72 68 66 62 60 60 41 260 248 286 289 277 286 303 304 291 281 278 277 279 285